Weather Service Report


296 
ASCA42 TJSJ 311611
RWRPR 
PUERTO RICO/U.S. VIRGIN ISLANDS HOURLY WEATHER ROUNDUP
NATIONAL WEATHER SERVICE SAN JUAN PR
1200 PM AST SAT JAN 31 2015

PRZ001-004-311700-
PUERTO RICO
  
CITY           SKY/WX    TMP DP  RH WIND       PRES   REMARKS
SAN JUAN LMM   PTSUNNY   81  72  74 NE9       30.03F                  
PONCE          MOSUNNY   84  68  58 SE9       30.00                   
MAYAGUEZ       PTSUNNY   81  68  65 W7        30.06                   
AGUADILLA      PTSUNNY   81  70  69 NE9       30.05F                  
CEIBA          MOSUNNY   82  72  69 NE10      30.05F                  
$$

PRZ006-007-311700-
U.S. VIRGIN ISLANDS
  
CITY           SKY/WX    TMP DP  RH WIND       PRES   REMARKS
$$

HOURLY WEATHER ROUNDUP FOR THE NEWS MEDIA
  
CITY           SKY/WX    TMP DP  RH WIND       PRES   REMARKS
MIAMI          PTSUNNY   74  53  48 NE15G25   30.23S                  
ORLANDO        SUNNY     65  48  54 E14       30.29S                  
NEW YORK       MOSUNNY   19  -3  38 NW32G40   30.12F WCI  -1          
NEWARK         SUNNY     19  -1  41 NW21G35   30.16S WCI   3          
CHICAGO        PTSUNNY   31  20  63 SW12      30.21F WCI  22          
HARTFORD       MOSUNNY   19  -5  34 NW13G30   29.82R WCI   6          
BOSTON         MOSUNNY   16  -5  39 NW24G38   29.84S WCI  -2          
DALLAS         CLOUDY    48  32  53 SE14      30.22R                  
PHILADELPHIA   SUNNY     21  -2  36 NW20G29   30.28S WCI   6          

Return to Home page


Western Regional Climate Center, wrcc@dri.edu